Weather in Khiytola

Russia / Republic of Karelia     61°14′18″N   29°41′25″E
temp.,
°C
wind,
m/s
gust,
m/s
humid.,
%
clouds,
%
prec.,
mm/h
press.,
hPa
HPBL,
m
3 august, tue
tue300:00+14n41097100 7.3 996533
03:00+13nnw61297100 19.4 994615
06:00+14w61197100 4.9 992731
09:00+14w61195100 5.4 993689
12:00+15w51188100 0.1 996851
15:00+14w61185100 0.3 998857
18:00+12wnw6119299 0.9 1001814
21:00+10w5128889 0.9 1003742
4 august, wed
wed400:00+11wnw3107486 0.0 1005594
03:00+10wsw411795 0.0 1007315
06:00+10wsw412770 0.0 1008380
09:00+16w59545 0.0 1010985
12:00+19w584147 0.0 10112354
15:00+20w463896 0.0 10122191
18:00+19wsw364363 0.0 10131908
21:00+14sw367142 0.0 1014137
5 august, thu
thu500:00+12wsw23805 0.0 101550
03:00+11sw2474100 0.0 101661
06:00+13wsw246997 0.0 1017104
09:00+18wsw225373 0.0 1017471
12:00+20s2241100 0.0 10171944
15:00+19ese334944 0.0 10181172
18:00+17ese2458100 0.0 1018221
21:00+15ese116767 0.0 101820
6 august, fri
fri600:00+12e117410 0.0 101826
03:00+12ene24788 0.0 101886
06:00+12ne25814 0.0 1018114
09:00+17ene475710 0.0 1018494
12:00+19e464918 0.0 1018792
15:00+20e464310 0.0 10181071
18:00+20ene36385 0.0 10161113
21:00+16ne411594 0.0 1016295
7 august, sat
sat700:00+15ene4126648 0.0 1016397
03:00+13ene4117686 0.0 1016373
06:00+14ene51376100 0.0 1016530
09:00+16e71464100 0.0 1015855
12:00+19e8135098 0.0 10141565
15:00+14e71380100 0.4 1014946
18:00+14e71485100 1.4 1014965
21:00+14ene71583100 1.8 1012936